Location: Newark
(39.8850°N, 17.2769°E)
Time: 11:08:01
(UTC+00:00)

Hubble Space Telescope - Pass Details

Date: 21 November 2019
Orbit: 536 x 540 km, 28.5° (Epoch: 10 December)

Event Time Altitude Azimuth Distance (km) Brightness Sun altitude
Rises 17:43:56 0° 238° (WSW) 2,668 5.3 -25.3°
Reaches altitude 10° 17:46:50 10° 217° (SW) 1,778 3.9 -25.9°
Enters shadow 17:48:44 16° 190° (S) 1,447 3.1 -26.2°
